Location: Hamilton
(37.7830°S, 175.2830°E)
Time: 09:35:32
(UTC+13:00)

H-2A R/B - Pass Details

Date: 24 January 2019
Orbit: 734 x 836 km, 98.3° (Epoch: 21 October)

Event Time Altitude Azimuth Distance (km) Brightness Sun altitude
Rises 22:34:58 0° 166° (SSE) 3,256 5.7 -19.6°
Reaches altitude 10° 22:37:19 10° 164° (SSE) 2,309 4.9 -19.9°
Maximum altitude 22:42:23 75° 78° (ENE) 782 1.8 -20.6°
Enters shadow 22:44:23 37° 0° (N) 1,154 2.5 -20.9°
